Flag for U.S.A. Weather past 2 weeks in Antioch, California, U.S.A.

Now
73 °F

Sunny.


Feels Like: 77 °F
Forecast: 53 / 76 °F
Wind: 10 mph from Northwest

Location: Buchanan Field


UV Index: 5 (Moderate)

Visibility: 10 mi


Pressure: 29.84 "Hg

Humidity: 40%

Dew point: 47 °F

Location of AntiochLocation

Historic Weather in Antioch

°F

Antioch temperature yesterday

Maximum temperature yesterday: 77 °F (at 1:53 PM)
Minimum temperature yesterday: 51 °F (at 6:53 AM)
Average temperature yesterday: 64 °F

Past Weeks' High & Low Weather Summary

 TemperatureHumidityPressure
High82 °F (Apr 8, 4:53 PM)100% (Apr 5, 5:53 AM)30.20 "Hg (Apr 5, 5:53 AM)
Low43 °F (Apr 5, 5:53 AM)25% (Apr 10, 2:53 PM)29.75 "Hg (Apr 17, 5:53 AM)
Average61 °F68%29.95 "Hg
* Reported Apr 3 12:53 PM — Apr 18 12:53 PM, Antioch, Weather by CustomWeather, © 2014

Note: Actual official high and low records may vary slightly from our data, if they occured in-between our weather recording intervals... More about our weather records

Advertising

Historic Weather Conditions — Data for Previous 24 hours

 ConditionsComfort  
Time TempWeatherWind HumidityBarometerVisibility
12:53 PM
Apr 18
73 °FSunny.10 mph40%29.84 "Hg10 mi
11:53 AM72 °FSunny.9 mph40%29.86 "Hg10 mi
10:53 AM68 °FSunny.6 mph51%29.87 "Hg10 mi
9:53 AM64 °FSunny.5 mph58%29.87 "Hg10 mi
8:53 AM60 °FSunny.7 mph65%29.87 "Hg10 mi
7:53 AM55 °FSunny.7 mph80%29.88 "Hg10 mi
6:53 AM53 °FClear.6 mph86%29.85 "Hg10 mi
5:53 AM53 °FClear.9 mph86%29.83 "Hg10 mi
4:53 AM53 °FClear.5 mph83%29.84 "Hg10 mi
3:53 AM54 °FClear.7 mph80%29.83 "Hg10 mi
2:53 AM56 °FClear.9 mph75%29.82 "Hg10 mi
1:53 AM56 °FClear.6 mph75%29.83 "Hg10 mi
12:53 AM58 °FClear.9 mph72%29.82 "Hg10 mi
11:53 PM
Apr 17
59 °FClear.7 mph62%29.82 "Hg10 mi
10:53 PM60 °FClear.5 mph62%29.80 "Hg10 mi
9:53 PM61 °FClear.10 mph62%29.80 "Hg10 mi
8:53 PM62 °FClear.9 mph62%29.79 "Hg10 mi
7:53 PM64 °FSunny.10 mph61%29.77 "Hg10 mi
6:53 PM70 °FSunny.10 mph47%29.76 "Hg10 mi
5:53 PM73 °FSunny.14 mph44%29.76 "Hg10 mi
4:53 PM74 °FSunny.12 mph43%29.75 "Hg10 mi
3:53 PM76 °FSunny.15 mph39%29.76 "Hg10 mi
2:53 PM77 °FSunny.13 mph39%29.78 "Hg10 mi
1:53 PM77 °FSunny.14 mph40%29.78 "Hg10 mi
Weather by CustomWeather, © 2014

See weather overview